Location: Newark
(44.4156°N, 12.1972°E)
Time: 10:08:51
(UTC+00:00)

STARLINK-1093 - Pass Details

Date: 30 January 2020
Orbit: 348 x 351 km, 53.0° (Epoch: 22 February)

Event Time Altitude Azimuth Distance (km) Brightness Sun altitude
Rises 18:09:47 0° 302° (WNW) 2,166 7.5 -20.2°
Reaches altitude 10° 18:11:49 10° 299° (WNW) 1,320 6.3 -20.6°
Enters shadow 18:14:09 49° 274° (W) 463 3.6 -21.0°
